www.pogodaiklimat.ru

Погода и климат >> Архив погоды >> Россия >> Сахалинская область >> Малокурильское


ПОГОДА в Малокурильском

  • Прогноз погоды в Малокурильском
  • Монитор погоды в Малокурильском

АРХИВ ПОГОДЫ в Малокурильском

Время (UTC), дата Ветер
(напр.,м/с)
 
Видим.   Явления Облачность Т
(С)
Тd
(С)
f
(%)
Тe
(С)
Тes
(С)
Комфортность P
(гПа)
Po
(гПа)
Тmin
(С)
Tmax
(С)
R
(мм)
R24
(мм)
S
(см)
12 16.07 Ю 4-6
{6}
10 км 10/10 300 м
[Sc]
+14.1 +12.7 91 +13 +13 1020.2 1012.6
15 16.07 Ю 4-7
{6}
20 км 10/10 600 м
[Sc]
+13.8 +12.6 92 +12 +12 1019.7 1012.0
18 16.07 Ю 5-7
{7}
20 км 6/6 600 м
[Sc]
+14.4 +13.0 91 +13 +13 1019.1 1011.5
21 16.07 Ю 3-5
{7}
10 км 10/10 300 м
[St]
+15.5 +14.3 93 +15 +15 1019.5 1011.9 +13.8
00 17.07 Ю 5-8
{8}
10 км 10/10 300 м
[St]
+17.9 +15.8 88 +17 +17 1019.2 1011.6
03 17.07 Ю 5-10
{11}
10 км 9/9 300 м
[St Ac cast]
+19.2 +16.2 83 +21 +22 комфорт 1018.5 1011.1
06 17.07 Ю 6-9
{11}
10 км слаб. морось 10/10 300 м
[St]
+17.1 +15.5 90 +16 +16 1018.5 1010.9
09 17.07 Ю 5-9
{13}
4000 м слаб. морось 10/10 200 м
[St]
+15.1 +14.5 96 +14 +14 1018.1 1010.5 +19.4 0.4
12 17.07 Ю 7-10
{11}
10 км {морось} 9/4 300 м
[St Ac cast]
+15.4 +14.6 95 +14 +14 1018.0 1010.4
15 17.07 Ю 6-8
{10}
10 км 10/10 300 м
[St]
+15.8 +15.2 96 +14 +14 1017.8 1010.2
18 17.07 Ю 4-7
{9}
10 км 10/10 300 м
[St]
+15.9 +15.6 98 +15 +15 1017.8 1010.2
21 17.07 Ю 4-6
{9}
4000 м дымка 10/10 200 м
[St]
+16.4 +16.3 99 +16 +16 1018.0 1010.4 +14.8 0.0
00 18.07 Ю 6-9
{9}
10 км 9/8 300 м
[St Ac trans]
+19.2 +16.8 86 +21 +21 комфорт 1017.5 1010.1
03 18.07 Ю 7-11
{12}
10 км 9/5 300 м
[Sc Ci]
+20.1 +16.8 81 +22 +25 комфорт 1017.5 1010.1
06 18.07 Ю 8-10
{13}
10 км 10/8 300 м
[St Ci fib]
+18.6 +16.3 86 +19 +19 1016.7 1009.3
09 18.07 Ю 6-9
{12}
4000 м дымка 10/10 200 м
[St]
+16.6 +15.8 95 +15 +15 1017.2 1009.7 +21.2
12 18.07 Ю 5-8
{9}
4000 м дымка 10/10 200 м
[St]
+16.1 +15.9 99 +15 +15 1018.1 1010.5
15 18.07 Ю 5-8
{11}
4000 м дымка 10/10 200 м
[St]
+16.5 +16.2 98 +16 +16 1018.1 1010.5
18 18.07 Ю 5-8
{10}
2000 м дымка 10/10 100 м
[St]
+15.9 +15.9 100 +15 +15 1017.0 1009.5
21 18.07 Ю 6-8
{11}
2000 м в посл. час туман 10/10 100 м
[St]
+16.5 +16.4 99 +15 +15 1017.4 1009.9 +15.6
00 19.07 Ю 6-10
{10}
4000 м дымка {дождь, туман} 10/10 200 м
[St]
+18.0 +17.8 99 +17 +17 1017.9 1010.3
03 19.07 Ю 7-10
{12}
10 км 10/10 300 м
[St]
+18.6 +16.8 89 +19 +19 1018.1 1010.5
06 19.07 Ю 5-9
{11}
4000 м дымка 10/10 200 м
[St]
+17.9 +16.9 94 +17 +17 1017.9 1010.3
09 19.07 Ю 6-9
{11}
4000 м слаб. дождь 10/10 200 м
[Frnb Ns]
+17.0 +16.6 97 +16 +16 1018.2 1010.6 +18.6 0.0
12 19.07 Ю 7-10
{12}
4000 м слаб. морось {дождь} 10/10 200 м
[St]
+16.7 +16.6 99 +15 +15 1018.7 1011.1
15 19.07 ЮВ 5-7
{10}
10 км в посл. час морось 10/10 300 м
[St]
+16.6 +16.4 99 +16 +16 1018.7 1011.1
18 19.07 ЮВ 5-6
{8}
10 км {морось} 10/10 300 м
[St]
+15.7 +15.6 99 +14 +14 1018.3 1010.7
21 19.07 ЮВ 5-7
{8}
4000 м дымка 10/10 200 м
[St]
+15.9 +15.9 100 +15 +15 1018.9 1011.3 +15.6 1
00 20.07 ЮВ 6-8
{8}
2000 м слаб. морось 10/10 100 м
[St]
+17.3 +17.1 99 +16 +16 1019.7 1012.1
03 20.07 ЮВ 6-8
{9}
10 км {морось} 10/10 300 м
[St]
+17.4 +15.4 88 +17 +17 1019.8 1012.2
06 20.07 ЮВ 6-9
{11}
2000 м слаб. морось 10/10 100 м
[St]
+16.3 +15.6 96 +15 +15 1019.7 1012.1
09 20.07 В 4-6
{9}
2000 м слаб. морось 10/10 100 м
[St]
+14.9 +14.8 99 +14 +14 1020.3 1012.7 +18.9 0.3
12 20.07 В 5-7
{8}
4000 м слаб. морось 10/10 200 м
[St]
+15.3 +15.1 99 +14 +14 1021.3 1013.7
15 20.07 ЮВ 5-8
{9}
4000 м дымка 10/10 200 м
[St]
+15.1 +14.2 94 +14 +14 1021.0 1013.4
18 20.07 В 5-6
{8}
4000 м в посл. час морось 10/10 200 м
[St]
+14.1 +14.1 100 +12 +12 1021.1 1013.5
21 20.07 В 4-7
{7}
2000 м дымка 10/10 100 м
[St]
+14.5 +14.4 99 +13 +13 1021.6 1014.0 +13.9 0.4
00 21.07 ЮВ 6-9
{9}
10 км {морось} 8/8 300 м
[Cb cap]
+17.6 +14.2 80 +17 +18 1021.6 1014.0
03 21.07 ЮВ 5-8
{9}
20 км 9/9 300 м
[Cb cap]
+17.8 +14.6 82 +17 +18 1021.5 1013.9
06 21.07 ЮВ 6-8
{9}
20 км 10/10 300 м
[St]
+17.0 +13.6 80 +16 +16 1020.6 1013.0
09 21.07 ЮВ 3-5
{9}
20 км 10/10 600 м
[Sc]
+15.2 +13.1 87 +14 +14 1020.4 1012.8 +17.9
12 21.07 ЮВ 3-4
{6}
20 км 10/10 600 м
[Sc]
+14.3 +11.6 84 +13 +13 1020.6 1013.0
15 21.07 Ю 2-4
{5}
20 км 10/10 600 м
[Sc]
+14.3 +11.8 85 +14 +14 1020.1 1012.5
18 21.07 ЮВ 2-3
{4}
20 км 10/10 600 м
[Sc]
+13.9 +12.3 90 +13 +13 1019.0 1011.3
21 21.07 Ю 4-6
{6}
20 км 10/10 600 м
[Sc]
+14.5 +11.9 84 +13 +13 1018.3 1010.7 +13.6
00 22.07 Ю 4-7
{7}
20 км 10/10 600 м
[Sc]
+16.4 +12.1 76 +16 +16 1018.2 1010.6
03 22.07 Ю 5-9
{11}
20 км 9/9 600 м
[Sc]
+17.4 +12.3 72 +17 +18 1017.4 1009.9
06 22.07 Ю 6-9
{10}
20 км 10/10 600 м
[Sc]
+16.9 +11.9 72 +16 +16 1016.4 1008.9
09 22.07 Ю 5-6
{11}
20 км 10/8 600 м
[Cb cap Ci fib]
+14.9 +11.5 80 +13 +13 1015.7 1008.2 +17.7
12 22.07 Ю 4-6
{8}
20 км 10/10 600 м
[Sc]
+14.5 +11.4 82 +13 +13 1016.3 1008.8
15 22.07 Ю 3-6
{7}
20 км 10/10 600 м
[Sc]
+14.2 +11.7 85 +13 +13 1015.7 1008.2
21 22.07 Ю 3-4
{5}
20 км 10/10 600 м
[Sc]
+14.8 +11.9 83 +14 +14 1014.8 1007.3 +13.9
03 23.07 Ю 6-10
{11}
20 км 9/8 600 м
[Sc Ci]
+18.0 +12.6 71 +17 +19 1013.2 1005.7

 

Местоположение метеостанции Малокурильское (Сахалинская область, Россия): широта 43.88 долгота 146.80 высота над уровнем моря 63 м.

В архиве по умолчанию представлена погода в Малокурильском за последнюю неделю. Архивные данные за месяц целиком и за предыдущие месяцы, начиная с января 2011 года, Вы можете получить, выбрав интересующий диапазон дат из раскрывающегося списка и нажав кнопку "Ввод!".


*Определитесь, кто Вы:
робот инопланетянин человек

Внимание! Время в таблицах - всемирное. Для получения местного времени необходимо прибавить поправку, которая равна 11 ч.

Смотрите также архив погоды в соседних городах и на ближайших метеорологических станциях:

Погода в Южно-Курильске (Сахалинская область, Россия) (82 км)
Погода в Немуро (Япония) (116 км)
Погода в Курильске (Сахалинская область, Россия) (172 км)
Погода в Абасири (Япония) (202 км)
Погода в Кусиро (Япония) (220 км)
Погода в Момбецу (Япония) (280 км)
Погода в Обихиро (Япония) (309 км)
Погода в Омурайсу (Япония) (316 км)
Погода в Хироо (Япония) (333 км)
Погода в Китами Сачи (Япония) (355 км)

Пояснения к столбцам:

Ветер - указаны скорость ветра в м/с - средняя за 10 мин, порывы в срок и между сроками (в фигурных скобках) и направление, откуда дует ветер: С - северный, СВ - северо-восточный, В - восточный, ЮВ - юго-восточный, Ю - южный, ЮЗ - юго-западный, З - западный, СЗ - северо-западный.
Видимость - горизонтальная дальность видимости в метрах или километрах. При видимости от 1 до 10 км при отсутствии осадков обычно наблюдается дымка, при ухудшении видимости до 1 км и менее - туман. В сухую погоду видимость может ухудшаться дымом, пылью или мглою.
Явления - указаны атмосферные явления, наблюдавшиеся в срок или в последний час перед сроком; фигурными скобками обозначены явления, наблюдавшиеся между сроками (за 1-3 часа до срока); квадратными скобками обозначены град или гололедные отложения с указанием их диаметра в мм.
Облачность - указаны через наклонную черту общая и нижняя облачность в баллах и высота нижней границы облаков в метрах; квадратными скобками обозначены формы облаков: Ci - перистые, Cs - перисто-слоистые, Cc - перисто-кучевые, Ac - высококучевые, As - высокослоистые, Sc - слоисто-кучевые, Ns - слоисто-дождевые, Cu - кучевые, Cb - кучево-дождевые. Подробнее классификацию облаков см. в Атласе облаков (PDF).
T - Температура воздуха - температура, измеренная на высоте 2 м над землей.
Td - Температура точки росы - температура, при понижении до которой содержащийся в воздухе водяной пар достигнет насыщения.
f - Относительная влажность воздуха - влажноcть воздуха, измеренная на высоте 2 м над землей.
Te - Эффективная температура - температура, которую ощущает одетый по сезону человек в тени. Характеристика душности погоды. При расчете учитывается влияние влажности воздуха и скорости ветра на теплоощущения человека.
Tes - Эффективная температура на солнце - температура, которую ощущает человек, с поправкой на солнечный нагрев. Характеристика знойности погоды. Зависит от высоты солнца над горизонтом, облачности и скорости ветра. Ночью, в пасмурную погоду, а также при ветре 12 м/с и более поправка равна нулю.
P - Атмосферное давление - приведенное к уровню моря атмосферное давление.
Po - Атмосферное давление - измеренное на уровне метеостанции атмосферное давление.
Tmin - Минимальная температура - минимум температуры воздуха на высоте 2 м над землей.
Tmax - Максимальная температура - максимум температуры воздуха на высоте 2 м над землей.
R - Количество осадков - Количество выпавших осадков за период времени, мм. При наведении курсора мыши на число - период времени, за который выпало указанное количество осадков.
R24 - Количество осадков - Количество выпавших осадков за 24 часа, мм.
S - Снежный покров - Высота снежного покрова, см. При наведении курсора мыши на число - состояние снежного покрова и степень покрытия местности в баллах.